TimeEDT,TemperatureF,Dew PointF,Humidity,Sea Level PressureIn,VisibilityMPH,Wind Direction,Wind SpeedMPH,Gust SpeedMPH,PrecipitationIn,Events,Conditions,WindDirDegrees,DateUTC
12:15 AM,53.6,51.8,94,30.15,10.0,Calm,Calm,-,N/A,,Overcast,0,2012-10-08 04:15:00
12:55 AM,53.6,51.8,94,30.15,10.0,Calm,Calm,-,N/A,,Overcast,0,2012-10-08 04:55:00
1:15 AM,53.6,51.8,94,30.16,10.0,North,4.6,-,N/A,,Overcast,350,2012-10-08 05:15:00
1:35 AM,53.6,51.8,94,30.15,-9999.0,North,5.8,-,N/A,,Unknown,350,2012-10-08 05:35:00
1:55 AM,51.8,51.8,100,30.16,10.0,North,3.5,-,N/A,,Overcast,350,2012-10-08 05:55:00
2:15 AM,51.8,51.8,100,30.17,10.0,North,4.6,-,N/A,,Overcast,360,2012-10-08 06:15:00
2:55 AM,51.8,51.8,100,30.17,10.0,North,4.6,-,N/A,,Overcast,360,2012-10-08 06:55:00
3:15 AM,51.8,50.0,94,30.16,10.0,North,5.8,-,N/A,,Mostly Cloudy,360,2012-10-08 07:15:00
3:55 AM,51.8,50.0,94,30.16,10.0,North,3.5,-,N/A,,Clear,10,2012-10-08 07:55:00
4:15 AM,51.8,48.2,88,30.17,10.0,NNE,3.5,-,N/A,,Scattered Clouds,20,2012-10-08 08:15:00
4:35 AM,51.8,48.2,88,30.17,-9999.0,North,3.5,-,N/A,,Unknown,350,2012-10-08 08:35:00
4:55 AM,51.8,48.2,88,30.18,10.0,North,4.6,-,N/A,,Mostly Cloudy,350,2012-10-08 08:55:00
5:15 AM,51.8,48.2,88,30.18,10.0,Calm,Calm,-,N/A,,Mostly Cloudy,0,2012-10-08 09:15:00
5:35 AM,51.8,48.2,88,30.18,-9999.0,North,5.8,-,N/A,,Unknown,350,2012-10-08 09:35:00
5:55 AM,51.8,48.2,88,30.18,10.0,North,6.9,-,N/A,,Unknown,10,2012-10-08 09:55:00
6:15 AM,51.8,48.2,88,30.20,10.0,North,4.6,-,N/A,,Overcast,360,2012-10-08 10:15:00
6:35 AM,51.8,48.2,88,30.20,-9999.0,NNE,8.1,-,N/A,,Unknown,20,2012-10-08 10:35:00
6:55 AM,51.8,46.4,82,30.21,10.0,North,5.8,-,N/A,,Overcast,360,2012-10-08 10:55:00
7:15 AM,51.8,46.4,82,30.21,10.0,NNE,3.5,-,N/A,,Overcast,20,2012-10-08 11:15:00
7:35 AM,51.8,46.4,82,30.22,-9999.0,NNE,3.5,-,N/A,,Unknown,30,2012-10-08 11:35:00
7:55 AM,51.8,46.4,82,30.22,10.0,North,3.5,-,N/A,,Overcast,10,2012-10-08 11:55:00
8:15 AM,51.8,46.4,82,30.22,10.0,NNE,5.8,-,N/A,,Overcast,20,2012-10-08 12:15:00
8:35 AM,51.8,46.4,82,30.24,-9999.0,North,4.6,-,N/A,,Unknown,10,2012-10-08 12:35:00
8:55 AM,51.8,46.4,82,30.24,10.0,North,3.5,-,N/A,,Overcast,10,2012-10-08 12:55:00
9:15 AM,51.8,44.6,76,30.24,10.0,North,4.6,-,N/A,,Overcast,10,2012-10-08 13:15:00
9:35 AM,51.8,44.6,76,30.25,-9999.0,NNW,5.8,-,N/A,,Unknown,340,2012-10-08 13:35:00
9:55 AM,51.8,44.6,76,30.26,10.0,North,3.5,-,N/A,,Overcast,360,2012-10-08 13:55:00
10:15 AM,51.8,44.6,76,30.25,10.0,NE,6.9,-,N/A,,Overcast,40,2012-10-08 14:15:00
10:35 AM,53.6,46.4,77,30.24,-9999.0,North,8.1,-,N/A,,Unknown,360,2012-10-08 14:35:00
10:55 AM,53.6,46.4,77,30.24,10.0,NNE,6.9,-,N/A,,Overcast,30,2012-10-08 14:55:00
11:15 AM,53.6,46.4,77,30.24,10.0,NNE,4.6,-,N/A,,Overcast,20,2012-10-08 15:15:00
11:35 AM,53.6,46.4,77,30.24,-9999.0,North,5.8,-,N/A,,Unknown,10,2012-10-08 15:35:00
11:55 AM,53.6,48.2,82,30.24,3.0,North,5.8,-,N/A,,Overcast,10,2012-10-08 15:55:00
12:15 PM,53.6,50.0,88,30.22,7.0,North,5.8,-,N/A,,Mostly Cloudy,10,2012-10-08 16:15:00
12:35 PM,53.6,51.8,94,30.22,-9999.0,North,3.5,-,N/A,,Unknown,360,2012-10-08 16:35:00
12:55 PM,53.6,50.0,88,30.22,5.0,NNW,4.6,-,N/A,,Unknown,340,2012-10-08 16:55:00
1:15 PM,53.6,51.8,94,30.21,5.0,NNW,5.8,-,N/A,,Overcast,340,2012-10-08 17:15:00
1:55 PM,53.6,51.8,94,30.18,4.0,North,5.8,-,N/A,,Overcast,360,2012-10-08 17:55:00
2:15 PM,53.6,51.8,94,30.16,7.0,North,5.8,-,N/A,,Overcast,10,2012-10-08 18:15:00
2:35 PM,53.6,51.8,94,30.17,-9999.0,North,8.1,-,N/A,,Unknown,360,2012-10-08 18:35:00
2:55 PM,53.6,51.8,94,30.17,3.0,North,5.8,-,N/A,,Overcast,10,2012-10-08 18:55:00
3:15 PM,53.6,51.8,94,30.17,4.0,NNW,8.1,-,N/A,,Overcast,340,2012-10-08 19:15:00
3:35 PM,53.6,51.8,94,30.14,-9999.0,North,8.1,18.4,N/A,,Unknown,10,2012-10-08 19:35:00
3:55 PM,53.6,51.8,94,30.15,3.0,North,8.1,-,N/A,,Unknown,10,2012-10-08 19:55:00
4:15 PM,53.6,51.8,94,30.16,4.0,North,6.9,-,N/A,,Overcast,10,2012-10-08 20:15:00
4:35 PM,53.6,51.8,94,30.16,-9999.0,NNE,6.9,-,N/A,,Unknown,20,2012-10-08 20:35:00
4:55 PM,53.6,51.8,94,30.16,5.0,North,6.9,-,N/A,,Overcast,350,2012-10-08 20:55:00
5:15 PM,51.8,51.8,100,30.15,4.0,North,8.1,-,N/A,,Overcast,360,2012-10-08 21:15:00
5:35 PM,51.8,51.8,100,30.15,-9999.0,North,5.8,-,N/A,,Unknown,360,2012-10-08 21:35:00
5:55 PM,51.8,51.8,100,30.15,5.0,North,5.8,-,N/A,,Overcast,10,2012-10-08 21:55:00
6:15 PM,53.6,51.8,94,30.16,5.0,North,5.8,-,N/A,,Overcast,350,2012-10-08 22:15:00
6:35 PM,53.6,51.8,94,30.15,-9999.0,North,5.8,-,N/A,,Unknown,10,2012-10-08 22:35:00
6:55 PM,53.6,51.8,94,30.14,10.0,NNE,9.2,-,N/A,,Overcast,20,2012-10-08 22:55:00
7:15 PM,53.6,51.8,94,30.14,10.0,NNE,6.9,-,N/A,,Overcast,20,2012-10-08 23:15:00
7:35 PM,53.6,51.8,94,30.13,-9999.0,NNE,6.9,-,N/A,,Unknown,20,2012-10-08 23:35:00
7:55 PM,53.6,51.8,94,30.14,7.0,North,6.9,-,N/A,,Overcast,10,2012-10-08 23:55:00
8:35 PM,53.6,51.8,94,30.15,-9999.0,North,5.8,-,N/A,,Unknown,360,2012-10-09 00:35:00
8:55 PM,53.6,51.8,94,30.15,10.0,North,5.8,-,N/A,,Overcast,350,2012-10-09 00:55:00
9:15 PM,53.6,51.8,94,30.15,10.0,North,3.5,-,N/A,,Overcast,10,2012-10-09 01:15:00
9:55 PM,53.6,51.8,94,30.15,10.0,North,4.6,-,N/A,,Overcast,360,2012-10-09 01:55:00
10:15 PM,53.6,51.8,94,30.14,10.0,North,3.5,-,N/A,,Overcast,350,2012-10-09 02:15:00
10:35 PM,53.6,53.6,100,30.14,-9999.0,North,4.6,-,N/A,,Unknown,350,2012-10-09 02:35:00
10:55 PM,53.6,51.8,94,30.13,10.0,North,6.9,-,N/A,,Overcast,360,2012-10-09 02:55:00
11:15 PM,53.6,51.8,94,30.13,7.0,North,4.6,-,N/A,,Overcast,360,2012-10-09 03:15:00
11:55 PM,53.6,51.8,94,30.12,10.0,North,5.8,-,N/A,,Overcast,360,2012-10-09 03:55:00